Regional Weather Roundup
Issued by NWS

Home | Current Version | Previous Version | Graphics & Text | Print | Product List | Glossary On
Versions: 1 2 3 4 5 6 7 8 9 10 11 12 13 14 15 16 17 18 19 20 21 22 23 24 25 26 27 28 29 30 31 32 33 34 35 36 37 38 39 40 41 42 43 44 45 46 47 48 49 50
000
ASUS45 KBOU 251107
RWRCO

WEATHER ROUNDUP FOR COLORADO
NATIONAL WEATHER SERVICE DENVER/BOULDER CO
500 AM MDT THU AUG 25 2016

NOTE: "FAIR" INDICATES FEW OR NO CLOUDS BELOW 12000 FEET WITH NO
SIGNIFICANT WEATHER AND/OR OBSTRUCTIONS TO VISIBILITY.

COZ001>005-013-030-031-251200-
...NORTHWEST COLORADO...

CITY           SKY/WX    TMP DP  RH WIND       PRES   REMARKS
CRAIG          FAIR      45  36  70 E3        30.26R
HAYDEN         FAIR      45  34  65 CALM      30.26R
MEEKER         FAIR      44  37  76 CALM      30.24R
MOUNT WERNER   NOT AVBL
STEAMBOAT SPGS FAIR      42  36  76 NW3       30.27R
WALDEN         FAIR      39  32  75 E6        30.33S
$$

COZ006>008-011-251200-
...WEST CENTRAL VALLEYS...

CITY           SKY/WX    TMP DP  RH WIND       PRES   REMARKS
GRAND JUNCTION FAIR      60  47  61 E14       30.14S
MONTROSE       FAIR      51  42  71 SE8       30.24S
EAGLE          FAIR      48  36  61 CALM      30.28S
RIFLE          FAIR      53  42  66 E5        30.20S
DELTA          FAIR      55  44  66 NE7       30.21S
NUCLA          NOT AVBL
$$

COZ017>023-064>068-251200-
...SOUTHWEST COLORADO...

CITY           SKY/WX    TMP DP  RH WIND       PRES   REMARKS
DURANGO        FAIR      45  43  93 E5        30.30R
CORTEZ         FAIR      49  46  90 SE3       30.24R
PAGOSA SPRINGS FAIR      45  45  99 CALM      30.36S
TELLURIDE      FAIR      44  38  79 SE5       30.44R
WOLF CREEK PAS FAIR      36  36 100 SW8       30.59S
$$

COZ009-010-012-014-032>034-037-058>063-251200-
...CENTRAL COLORADO...

CITY           SKY/WX    TMP DP  RH WIND       PRES   REMARKS
ASPEN          FAIR      44  36  73 S8        30.32F
BUENA VISTA    MOCLDY    41  39  92 W3        30.38S
COPPER MTN     FAIR      41  30  65 SW8       30.55S
BERTHOUD PASS  FAIR      34  21  60 NW13      30.56S WCI  25
COTTONWOOD PAS FAIR      45  37  76 SW3       30.45S
GUNNISON       FAIR      45  37  76 CALM      30.39S
KREMMLING      FAIR      36  34  93 CALM      30.34S
LEADVILLE      CLOUDY    41  38  89 CALM      30.45S
MONARCH PASS   FAIR      36  34  93 W18       30.65S
SALIDA         CLOUDY    48  44  85 W5        30.44S
SUNLIGHT       FAIR      45  28  53 NE6       30.50S
WILKERSON PASS FAIR      36  36 100 W6        30.53F
$$

COZ069>075-251200-
...SAN LUIS VALLEY/SANGRE DE CRISTO MOUNTAINS...

CITY           SKY/WX    TMP DP  RH WIND       PRES   REMARKS
ALAMOSA        FAIR      38  37  97 SW3       30.35S
LA VETA PASS   FAIR      39  37  93 S7        30.46R
SAGUACHE       FAIR      43  41  93 NW12      30.38R
$$

COZ035-036-038>040-251200-
...NORTHERN COLORADO FRONT RANGE...

CITY           SKY/WX    TMP DP  RH WIND       PRES   REMARKS
DENVER INTL AP FAIR      49  38  65 S10       30.22S
DMNS CITY PARK   N/A     49  46  90 S3        30.23S
AURORA         PTCLDY    50  38  64 SE7       30.23S
FRONT RANGE AP NOT AVBL
ERIE MUNI ARPT FAIR      46  45  98 CALM      30.22S
BOULDER MUN AP FAIR      48  45  87 CALM      30.22R
CENTENNIAL     FAIR      47  37  68 S3        30.24R
BROOMFIELD     FAIR      50  45  81 CALM      30.23S
FORT COLLINS   FAIR      48  48 100 N9        30.23S
LONGMONT       FAIR      48  44  85 W5        30.24R FOG
$$

COZ041-046-047-076>085-087-088-251200-
...PIKES PEAK/PALMER DIVIDE AND SOUTHERN FOOTHILLS...

CITY           SKY/WX    TMP DP  RH WIND       PRES   REMARKS
COLO. SPRINGS  FAIR      44  36  73 N5        30.29R
A. F. ACADEMY  FAIR      40  39  95 N7        30.28S
SCHRIEVER AFB  NOT AVBL
ELLICOTT       NOT AVBL
FALCON         FAIR      43  34  72 W6        30.30S
FORT CARSON    NOT AVBL
LIMON          FAIR      38  32  79 N5        30.25R
MONUMENT HILL  FAIR      41  36  81 S8        30.31S
TRINIDAD       FAIR      52  48  86 W12       30.26S
$$

COZ042>045-048>051-090-091-251200-
...NORTHEAST COLORADO...

CITY           SKY/WX    TMP DP  RH WIND       PRES   REMARKS
GREELEY ARPT   FAIR      46  43  87 E3        30.23R
AKRON          FAIR      50  37  61 SE8       30.22F
BURLINGTON     FAIR      54  44  69 N5        30.21R
WRAY           FAIR      46  41  81 W3        30.20S
STERLING       FAIR      43  37  81 CALM      30.21S
HOLYOKE        FAIR      46  41  81 N9        30.23R
FORT MORGAN    FAIR      46  39  75 CALM      30.23R
$$

COZ086-089-092>099-251200-
...SOUTHEAST COLORADO...

CITY           SKY/WX    TMP DP  RH WIND       PRES   REMARKS
PUEBLO         FAIR      50  42  74 CALM      30.22S
LA JUNTA       FAIR      58  45  62 N5        30.19S
LAMAR          FAIR      58  52  80 E3        30.16S
SPRINGFIELD      N/A     56  52  86 NW3       30.18R
$$



USA.gov is the U.S. government's official web portal to all federal, state and local government web resources and services.